Simultaneous Nadir Overpasses (SNOs) Predictions

Prediction of SNOs between AQUA and NOAA-19 Satellite Orbit:

Table of predicted SNOs for the next 14.0 days since TLE Epoch: 7/19/2019
Index Date (AQUA) Time (AQUA) Lat,Lon (AQUA) SZA (AQUA ) Date (NOAA-19) Time (NOAA-19) Lat,Lon (NOAA-19) SZA (NOAA-19 ) Distance(km) Time Diff (sec)
1 07/20/2019 01:20:17 -80.33, -53.54 118.58 07/20/2019 01:19:33 -80.35, -53.55 118.55 1.42 44
2 07/20/2019 02:09:44 80.35, 113.91 61.47 07/20/2019 02:10:31 80.36, 113.88 61.46 0.72 47
3 07/22/2019 06:54:01 80.34, 43.00 61.86 07/22/2019 06:52:56 80.34, 43.07 61.88 1.37 65
4 07/22/2019 07:43:28 -80.35,-149.45 118.12 07/22/2019 07:43:57 -80.35,-149.42 118.13 1.04 29
5 07/24/2019 13:17:12 80.35, -52.92 62.35 07/24/2019 13:17:21 80.34, -52.97 62.34 1.63 9
6 07/26/2019 18:50:56 -80.35, 43.69 117.19 07/26/2019 18:50:46 -80.33, 43.66 117.19 1.44 10
7 07/29/2019 00:24:39 80.32, 140.50 63.28 07/29/2019 00:24:10 80.34, 140.44 63.31 2.05 29
8 07/29/2019 01:14:07 -80.36, -52.27 116.64 07/29/2019 01:15:10 -80.34, -52.27 116.69 2.72 63
9 07/31/2019 05:58:23 -80.32,-122.92 116.20 07/31/2019 05:57:34 -80.33,-122.99 116.17 1.43 49
10 07/31/2019 06:47:50 80.34, 44.54 63.85 07/31/2019 06:48:34 80.35, 44.67 63.83 2.85 44
11 08/02/2019 11:32:07 80.33, -26.44 64.37 08/02/2019 11:31:00 80.31, -26.55 64.40 3.00 67




NCC Satellite Simultaneous Nadir Overpasses (SNOs) Prediction Service
